Home > Weather > Regensdorf > Past weeks

Flag for Switzerland Past Weather in Regensdorf, Zurich, Switzerland — Yesterday and Last 2 Weeks

Now
64 °F

Broken clouds.


Feels Like: 64 °F
Forecast: 52 / 69 °F
Wind: 10 mph from West

Location: Zurich-Kloten

Current Time: May 31, 2016 at 2:02:42 PM

Latest Report: May 31, 2016 at 1:20 PM


Visibility: N/A

Pressure: 29.89 "Hg

Humidity: 60%

Dew Point: 50 °F

Location of RegensdorfLocation

Past Weather in Regensdorf — Graph

°F

Regensdorf Temperature Yesterday

Maximum temperature yesterday: 64 °F (at 1:20 PM)
Minimum temperature yesterday: 55 °F (at 2:50 AM)
Average temperature yesterday: 59 °F

High & Low Weather Summary for the Past Weeks

 TemperatureHumidityPressure
High81 °F (May 22, 3:20 PM)100% (May 17, 4:20 AM)30.21 "Hg (May 17, 4:20 AM)
Low39 °F (May 18, 5:50 AM)31% (May 21, 3:50 PM)29.74 "Hg (May 29, 9:20 AM)
Average57 °F74%29.96 "Hg
* Reported May 16 12:20 PM — May 31 12:50 PM, Regensdorf, Weather by CustomWeather, © 2016

Note: Actual official high and low records may vary slightly from our data, if they occured in-between our weather recording intervals... More about our weather records

Advertising

Regensdorf Weather History for the Previous 24 Hours

Scroll right to see more
 ConditionsComfort  
Time TempWeatherWind HumidityBarometerVisibility
12:50 PM
Tue, May 31
64 °FBroken clouds.10 mph60%29.89 "HgN/A
12:20 PM63 °FBroken clouds.13 mph64%29.89 "HgN/A
11:50 AM63 °FBroken clouds.10 mph64%29.89 "HgN/A
11:20 AM63 °FBroken clouds.10 mph64%29.89 "HgN/A
10:50 AM66 °FPartly sunny.10 mph56%29.89 "HgN/A
10:20 AM66 °FBroken clouds.9 mph56%29.89 "HgN/A
9:50 AM61 °FBroken clouds.10 mph63%29.89 "HgN/A
9:20 AM61 °FBroken clouds.14 mph63%29.89 "HgN/A
8:50 AM59 °FBroken clouds.9 mph72%29.89 "HgN/A
8:20 AM59 °FPartly sunny.5 mph72%29.86 "HgN/A
7:50 AM57 °FPartly sunny.5 mph77%29.86 "HgN/A
7:20 AM55 °FPartly sunny.6 mph82%29.86 "HgN/A
6:50 AM54 °FScattered clouds.5 mph88%29.86 "HgN/A
6:20 AM52 °FPassing clouds.5 mph88%29.86 "HgN/A
5:50 AM50 °FPassing clouds.3 mph94%29.86 "HgN/A
5:20 AM50 °FPassing clouds.1 mph94%29.83 "HgN/A
4:50 AM50 °FPassing clouds.No wind94%29.83 "HgN/A
4:20 AM52 °FPassing clouds.2 mph88%29.83 "HgN/A
3:50 AM52 °FPassing clouds.2 mph88%29.83 "HgN/A
3:20 AM54 °FPassing clouds.2 mph88%29.83 "HgN/A
2:50 AM55 °FPassing clouds.6 mph82%29.83 "HgN/A
1:50 AM55 °FPassing clouds.3 mph82%29.83 "HgN/A
1:20 AM55 °FPassing clouds.5 mph82%29.83 "HgN/A
12:50 AM55 °FPassing clouds.6 mph82%29.83 "HgN/A
12:20 AM55 °FPassing clouds.7 mph82%29.83 "HgN/A
11:50 PM
Mon, May 30
55 °FPassing clouds.6 mph82%29.83 "HgN/A
11:20 PM57 °FPassing clouds.7 mph77%29.83 "HgN/A
10:50 PM57 °FPassing clouds.3 mph77%29.83 "HgN/A
10:20 PM59 °FPassing clouds.6 mph72%29.83 "HgN/A
9:50 PM59 °FScattered clouds.8 mph72%29.83 "HgN/A
9:20 PM61 °FPartly sunny.9 mph68%29.83 "HgN/A
8:50 PM59 °FScattered clouds.9 mph72%29.80 "HgN/A
8:20 PM61 °FScattered clouds.12 mph68%29.80 "HgN/A
7:50 PM63 °FPartly sunny.14 mph64%29.80 "HgN/A
7:20 PM64 °FScattered showers. Scattered clouds.16 mph64%29.80 "HgN/A
6:50 PM64 °FPartly sunny.12 mph64%29.80 "HgN/A
6:20 PM64 °FPartly sunny.13 mph64%29.80 "HgN/A
5:50 PM63 °FPartly sunny.15 mph64%29.80 "HgN/A
5:20 PM63 °FPartly sunny.16 mph64%29.80 "HgN/A
4:50 PM63 °FBroken clouds.15 mph64%29.80 "HgN/A
4:20 PM63 °FPartly sunny.12 mph64%29.80 "HgN/A
3:50 PM63 °FPartly sunny.13 mph68%29.77 "HgN/A
3:20 PM63 °FPartly sunny.15 mph64%29.77 "HgN/A
2:50 PM64 °FBroken clouds.14 mph64%29.77 "HgN/A
2:20 PM64 °FBroken clouds.15 mph64%29.77 "HgN/A
Weather by CustomWeather, © 2016

See weather overviewHow to use our weather pages